Worcester, MA

3:43 AM EST on December 13, 2019 (GMT -0500)
Worcester Regional

Weather History for KORH - November, 2019

Change the Weather History Date:

Sunday, November 17, 2019

  Actual Average Record
Temperature  
Mean Temperature 25 °F 40 °F  
Max Temperature 31 °F 47 °F 74 °F (1928)
Min Temperature 19 °F 33 °F 8 °F (1924)
Degree Days  
Heating Degree Days 40 25  
Month to date heating degree days 502 382  
Since 1 July heating degree days 1036 1043  
Cooling Degree Days 0 0  
Month to date cooling degree days 0 0  
Year to date cooling degree days 545 471  
Moisture  
Dew Point 17 °F    
Average Humidity 69    
Maximum Humidity 89    
Minimum Humidity 42    
Precipitation  
Precipitation T in 0.15 in 1.50 in (1930)
Month to date precipitation 0.46 2.40  
Year to date precipitation 45.57 42.37  
Sea Level Pressure  
Sea Level Pressure 30.32 in    
Wind  
Wind Speed 9 mph ()    
Max Wind Speed 16 mph    
Max Gust Speed 22 mph    
Visibility 9.5 miles    
Events Snow    
T = Trace of Precipitation, MM = Missing Value Source: Averaged Metar Reports

Daily Weather History Graph

Daily Weather History Graph

Search for Another Location

Airport or City:

Astronomy

Nov. 17, 2019 Rise Set
Actual Time 6:40 AM EST 4:24 PM EST
Civil Twilight 6:09 AM EST 4:54 PM EST
Nautical Twilight 5:35 AM EST 5:28 PM EST
Astronomical Twilight 5:02 AM EST 6:01 PM EST
Moon 8:56 PM EST (11/17) 11:25 AM EST (11/17)
Length of Visible Light 10h 44m
Length of Day
9h 44m
Waning Gibbous, 73% of the Moon is Illuminated
Nov 17
Waning Gibbous
Nov 19
Last Quarter
Nov 26
New
Dec 4
First Quarter
Dec 12
Full

Hourly Weather History & Observations

Time (EST) Temp. Windchill Dew Point Humidity Pressure Visibility Wind Dir Wind Speed Gust Speed Precip Events Conditions
1:54 AM 19.9 °F 10.1 °F -0.0 °F 42% 30.46 in 10.0 mi North 8.1 mph - N/A   Clear
2:54 AM 19.9 °F 9.3 °F -0.0 °F 42% 30.46 in 10.0 mi North 9.2 mph - N/A   Clear
3:54 AM 19.9 °F 9.3 °F -0.0 °F 42% 30.45 in 10.0 mi NNE 9.2 mph - N/A   Clear
4:54 AM 19.9 °F 9.3 °F -0.0 °F 42% 30.45 in 10.0 mi NE 9.2 mph - N/A   Clear
5:54 AM 19.9 °F 9.3 °F 3.9 °F 50% 30.44 in 10.0 mi NNE 9.2 mph 19.6 mph N/A   Clear
6:54 AM 19.9 °F 7.3 °F 7.0 °F 57% 30.44 in 10.0 mi NNE 12.7 mph 20.7 mph N/A   Clear
7:54 AM 19.9 °F 7.3 °F 10.0 °F 65% 30.45 in 10.0 mi NNE 12.7 mph - N/A   Clear
8:19 AM 21.0 °F 8.6 °F 10.9 °F 65% 30.39 in 10.0 mi NNE 12.7 mph - N/A   Mostly Cloudy
8:54 AM 24.1 °F 14.4 °F 14.0 °F 65% 30.44 in 10.0 mi NE 9.2 mph - N/A   Overcast
9:54 AM 26.1 °F 16.8 °F 16.0 °F 66% 30.44 in 10.0 mi NE 9.2 mph - N/A   Overcast
10:54 AM 28.0 °F 18.6 °F 18.0 °F 66% 30.42 in 10.0 mi NNE 10.4 mph 17.3 mph N/A   Overcast
11:54 AM 28.9 °F 20.4 °F 19.0 °F 67% 30.38 in 10.0 mi NE 9.2 mph - N/A   Overcast
12:54 PM 30.0 °F 21.1 °F 21.0 °F 69% 30.36 in 10.0 mi NE 10.4 mph - N/A   Overcast
1:54 PM 30.0 °F 21.1 °F 21.0 °F 69% 30.34 in 10.0 mi NNE 10.4 mph 17.3 mph N/A   Overcast
2:54 PM 30.0 °F 22.4 °F 21.9 °F 72% 30.32 in 10.0 mi NE 8.1 mph - N/A   Overcast
3:50 PM 30.2 °F 21.9 °F 21.2 °F 69% 30.25 in 10.0 mi NE 9.2 mph - N/A   Overcast
3:54 PM 30.0 °F 21.7 °F 21.9 °F 72% 30.30 in 10.0 mi NNE 9.2 mph - N/A   Overcast
4:54 PM 30.0 °F 21.1 °F 24.1 °F 79% 30.27 in 8.0 mi NE 10.4 mph 18.4 mph 0.00 in Snow Light Snow
5:54 PM 30.0 °F 21.7 °F 25.0 °F 82% 30.27 in 4.0 mi NE 9.2 mph - 0.00 in Snow Light Snow
6:54 PM 30.0 °F 21.7 °F 26.1 °F 85% 30.25 in 10.0 mi NE 9.2 mph - 0.00 in   Overcast
7:54 PM 30.0 °F 21.1 °F 26.1 °F 85% 30.23 in 9.0 mi NNE 10.4 mph - 0.00 in   Overcast
8:13 PM 30.0 °F 21.7 °F 26.1 °F 85% 30.18 in 10.0 mi NNE 9.2 mph - N/A   Overcast
8:54 PM 30.0 °F 21.1 °F 26.1 °F 85% 30.20 in 10.0 mi NNE 10.4 mph 17.3 mph N/A   Overcast
9:54 PM 30.0 °F 21.7 °F 27.0 °F 88% 30.17 in 10.0 mi NNE 9.2 mph - N/A   Overcast
10:35 PM 30.0 °F 21.7 °F 26.1 °F 85% 30.11 in 10.0 mi NE 9.2 mph 20.7 mph N/A   Overcast
11:33 PM 28.9 °F 17.7 °F 26.1 °F 89% 30.08 in 6.0 mi NNE 15.0 mph 21.9 mph 0.00 in Snow Light Snow
11:54 PM 28.9 °F 18.2 °F 25.0 °F 85% 30.11 in 10.0 mi NNE 13.8 mph 21.9 mph 0.00 in   Overcast